Regional Weather Roundup
Issued by NWS

Home | Current Version | Previous Version | Text Only | Print | Product List | Glossary On
Versions: 1 2 3 4 5 6 7 8 9 10 11 12 13 14 15 16 17 18 19 20 21 22 23 24 25 26 27 28 29 30 31 32 33 34 35 36 37 38 39 40 41 42 43 44 45 46 47 48 49 50
000
ASUS43 KTOP 020708
RWRKS

WEATHER ROUNDUP FOR KANSAS
NATIONAL WEATHER SERVICE GOODLAND KS
200 AM CDT THU APR 02 2015

NOTE:  "FAIR" INDICATES FEW OR NO CLOUDS BELOW 12,000 FEET WITH NO
SIGNIFICANT WEATHER AND/OR OBSTRUCTIONS TO VISIBILITY.

KSZ001>006-013>018-027>032-041>047-020800-
NORTHWEST KANSAS

CITY           SKY/WX    TMP DP  RH WIND       PRES   REMARKS
GOODLAND       PTCLDY    44  38  79 N7        29.85R
HAYS           MOCLDY    57  36  44 N23G33    29.76F
HILL CITY      CLOUDY    58  34  40 N16       29.81F
RUSSELL        MOCLDY    59  41  51 N26G37    29.70R
$$

KSZ061>065-074>080-084>089-020800-
SOUTHWEST KANSAS

CITY           SKY/WX    TMP DP  RH WIND       PRES   REMARKS
DODGE CITY     PTCLDY    60  37  42 N28G39    29.73R
ELKHART          N/A     56  37  49 N17         N/A
GARDEN CITY    PTCLDY    57  38  48 NE29G37   29.75R
GREAT BEND     MOCLDY    59  43  55 N25G36    29.73R
LIBERAL        PTCLDY    63  34  34 N30       29.76R
PRATT          MOCLDY    68  57  68 W10       29.68R
$$

KSZ066>073-081>083-090>101-020800-
SOUTHEAST KANSAS

CITY           SKY/WX    TMP DP  RH WIND       PRES   REMARKS
CHANUTE        PTCLDY    68  62  81 S22G33    29.64F
COFFEYVILLE    MOCLDY    68  62  81 S26G37    29.65F
HUTCHINSON     PTCLDY    72  56  57 W14G31    29.63R
MEDICINE LODGE   N/A     67  60  78 S10       29.61R
NEWTON         CLEAR     68  54  60 S21G30    29.60S
PARSONS        MOCLDY    68  63  84 S18G36    29.64F
WICHITA INTL   MOCLDY    70  58  65 S16       29.57F
WICHITA JABRA  PTCLDY    70  59  68 S22G33    29.58F
WICHITA MCCONL PTCLDY    70  60  71 S20G31    29.58F
WINFIELD       MOCLDY    70  61  73 SW24G30   29.67R THUNDER
$$

KSZ007>012-019>026-033>040-048>060-102>105-020800-
NORTHEAST KANSAS

CITY           SKY/WX    TMP DP  RH WIND       PRES   REMARKS
CONCORDIA      CLOUDY    57  50  77 NE23G39   29.70R
EMPORIA        PTCLDY    66  60  81 S24G32    29.57F
LAWRENCE       PTCLDY    66  58  75 S16G24    29.58F
MANHATTAN      MOCLDY    70  58  65 SW6       29.61R
MARYSVILLE     CLOUDY    55  54  94 N13       29.69R
OLATHE IND     PTCLDY    63  58  83 S15       29.61F
OLATHE EXE     PTCLDY    62  58  86 S15       29.60F
SALINA         TSTM      61  53  75 N22G35    29.65R
TOPEKA BILLARD PTCLDY    68  59  73 S8G20     29.57S
TOPEKA FORBES  PTCLDY    68  59  73 S23G32    29.54F
$$



USA.gov is the U.S. government's official web portal to all federal, state and local government web resources and services.